Location: �clusier
(49.9361°N, 2.7869°E)
Time: 11:04:21
(UTC+00:00)

Cosmos 1452 Rocket - Pass Details

Date: 28 October 2021
Orbit: 767 x 775 km, 74.1° (Epoch: 26 November)

Event Time Altitude Azimuth Distance (km) Brightness Sun altitude
Exits shadow 03:12:34 - 345° (NNW) 3,139 6.7 -32.3°
Reaches altitude 10° 03:16:04 10° 12° (NNE) 2,335 6.3 -31.7°
Maximum altitude 03:18:20 13° 38° (NE) 2,152 6.4 -31.4°
Drops below altitude 10° 03:20:36 10° 63° (ENE) 2,330 6.9 -31.1°
Sets 03:24:31 0° 92° (E) 3,252 7.8 -30.5°
